User: anonymous   Login
Location: Beaurecueil
(43.5122°N, 5.5450°E)
Time: 02:37:54
(UTC+00:00)
Language:

Cosmos 1437 - Orbit

View from above orbital plane
View from above orbital plane
View from above satellite
View from above satellite

Ground track
Ground track

The orbit data is extracted from the following two-line orbital elements,

1 13770U 83003A   21127.55015577  .00014855  00000-0  10204-3 0  9993
2 13770  81.1549 180.7507 0003067 179.7656 180.3606 15.74507133107731
Epoch (UTC): 07 May 2021 13:12:13
Eccentricity: 0.0003067
inclination: 81.1549°
perigee height: 344 km
apogee height: 348 km
right ascension of ascending node: 180.7507°
argument of perigee: 179.7656°
revolutions per day: 15.74507133
mean anomaly at epoch: 180.3606°
orbit number at epoch: 10773

The dashed part of the orbit path shows where the satellite is in the earth's shadow,  

DLR